Weather in Panova

Russia / Sverdlovsk Oblast     57°10′53″N   63°28′22″E
temp.,
°C
wind,
m/s
gust,
m/s
humid.,
%
clouds,
%
prec.,
mm/h
press.,
hPa
HPBL,
m
21 april, wed
wed2123:00+3wnw39650 0.0 1028159
02:00+2nw310750 0.0 1029185
05:000nw36850 0.0 103095
08:00+4nnw34695 0.0 1031251
11:00+9nnw34555 0.0 10321089
14:00+11n23435 0.0 10321583
17:00+12nne224025 0.0 10321720
20:00+9ese365716 0.0 1033134
22 april, thu
thu2223:00+5ese39715 0.0 1035199
02:00+4sse38765 0.0 1035165
05:00+3se39805 0.0 1036171
08:00+7sse486565 0.0 1036343
11:00+12s5745100 0.0 10351135
14:00+14s6836100 0.0 10341758
17:00+14s5936100 0.0 10341927
20:00+11ssw3846100 0.0 1034225
23 april, fri
fri2323:00+8s3956100 0.0 1034224
02:00+7sse3963100 0.0 1034246
05:00+6sse3973100 0.0 1033230
08:00+8s41163100 0.0 1034470
11:00+10ssw5855100 0.0 1033913
14:00+12ssw6950100 0.0 10321781
17:00+10s377097 0.2 10331146
20:00+9se2580100 0.3 1032203
24 april, sat
sat2423:00+9sse3773100 0.4 1031281
02:00+7sse2470100 0.0 103090
05:00+7sse3568100 0.0 1029132
08:00+8se2771100 0.1 1028250
11:00+8sse2680100 0.8 1028315
14:00+11ese5744100 0.1 10261037
17:00+12se4841100 0.1 10242206
20:00+9sse5950100 0.0 1024671
25 april, sun
sun2523:00+7se51159100 0.0 1023501
02:00+6se41060100 0.0 1021546
05:00+5e41080100 0.1 1019412
08:00+7ese6105698 0.0 1017596
11:00+11se684036 0.0 10141133
14:00+12sse684494 0.0 10131570
17:00+9ssw5674100 0.1 10121014
20:00+7sw4587100 0.4 1012855